Вернуться в каталог

STARLINK-4194

АктивенСвязьVLEO
NORAD 53000·PAYLOAD·🇺🇸 United States

Запущен Jul 7, 2022 с Cape Canaveral Space Force Station

Loading…

Ближайшие Пролёты (ближайшие 24 часа)

TLE

СвежийSource: CelesTrak SupGP

Эпоха: Sep 14, 2026, 20:30 UTC

1 53000C 22076Q   26257.85465278 -.00029781  00000+0 -88019-3 0  2576
2 53000  53.1580 309.7624 0001134  86.1199  86.2328 15.34395059    10

Отслеживайте STARLINK-4194 в реальном времени с AllMySat

Download on the App Store